This is the latest recevied weather packets stored in our database for station/object KQ4UWH. If no packets are shown the sender has not sent any weather packets the latest 10 day(s).
| Time | Temp. | Humidity | Pressure | Rain* | Wind** | Luminosity | Snow |
|---|---|---|---|---|---|---|---|
| 1777994516 | 22.22° C | 49% | 1239.7 hPa | 0 mm | - | 632 W/m² | - |
| 1777994211 | 21.67° C | 50% | 1239.7 hPa | 0 mm | - | 625 W/m² | - |
| 1777993909 | 21.67° C | 49% | 1239.7 hPa | 0 mm | - | 612 W/m² | - |
| 1777993605 | 21.11° C | 52% | 1239.7 hPa | 0 mm | - | 225 W/m² | - |
| 1777993302 | 21.11° C | 49% | 1239.7 hPa | 0 mm | - | 65 W/m² | - |
| 1777992997 | 21.11° C | 52% | 1239.7 hPa | 0 mm | - | 40 W/m² | - |
| 1777992697 | 20.56° C | 53% | 1239.7 hPa | 0 mm | - | 81 W/m² | - |
| 1777992394 | 20.56° C | 59% | 1239.7 hPa | 0 mm | - | 68 W/m² | - |
| 1777992091 | 20° C | 58% | 1239.7 hPa | 0 mm | - | 60 W/m² | - |
| 1777991789 | 20° C | 59% | 1239.7 hPa | 0 mm | - | 84 W/m² | - |
| 1777991486 | 19.44° C | 63% | 1239.7 hPa | 0 mm | - | 197 W/m² | - |
| 1777991182 | 18.89° C | 63% | 1239.7 hPa | 0 mm | - | 41 W/m² | - |
| 1777990880 | 18.89° C | 64% | 1239.7 hPa | 0 mm | - | 43 W/m² | - |
| 1777990577 | 18.33° C | 64% | 1239.7 hPa | 0 mm | - | 125 W/m² | - |
| 1777989971 | 17.78° C | 67% | 1239.7 hPa | 0 mm | - | 49 W/m² | - |
| 1777989668 | 17.22° C | 68% | 1239.7 hPa | 0 mm | - | 87 W/m² | - |
| 1777989363 | 17.22° C | 70% | 1239.7 hPa | 0 mm | - | 41 W/m² | - |
| 1777989060 | 16.67° C | 71% | 1239.7 hPa | 0 mm | - | 39 W/m² | - |
| 1777988756 | 16.67° C | 71% | 1239.7 hPa | 0 mm | - | 35 W/m² | - |
| 1777988454 | 16.67° C | 70% | 1239.7 hPa | 0 mm | - | 70 W/m² | - |
| 1777988150 | 16.67° C | 71% | 1239.7 hPa | 0 mm | - | 34 W/m² | - |
| 1777987846 | 16.11° C | 72% | 1239.7 hPa | 0 mm | - | 37 W/m² | - |
| 1777987543 | 16.11° C | 73% | 1239.7 hPa | 0 mm | - | 32 W/m² | - |
| 1777987241 | 15.56° C | 73% | 1239.7 hPa | 0 mm | - | 32 W/m² | - |
| 1777986937 | 15.56° C | 74% | 1239.7 hPa | 0 mm | - | 31 W/m² | - |
* Rain latest hour (hover to see other rain measurements)
** Current wind speed in m/s (hover to see current wind gust speed)